Location: Springfield
(37.2150°N, 93.2980°W)
Time: 08:05:41
(UTC-05:00)

Thor Agena Rocket - Pass Details

Date: 19 April 2018
Orbit: 760 x 807 km, 99.1° (Epoch: 22 May)

Event Time Altitude Azimuth Distance (km) Brightness Sun altitude
Rises 20:38:56 0° 15° (NNE) 3,295 6.9 -9.7°
Reaches altitude 10° 20:41:15 10° 17° (NNE) 2,368 6.1 -10.1°
Maximum altitude 20:46:30 78° 103° (ESE) 822 3.5 -11.1°
Drops below altitude 10° 20:51:45 10° 190° (S) 2,375 5.9 -12.0°
Sets 20:54:05 0° 192° (SSW) 3,304 6.6 -12.4°
